Tracking 30995 objects as of 5-Jul-2025
HD Live streaming from Space Station
objects crossing your sky now

STARLINK-2499

Track STARLINK-2499 now!
10-day predictions
STARLINK-2499 is classified as:


NORAD ID: 48377
Int'l Code: 2021-038AA
Perigee: 553.4 km
Apogee: 555.4 km
Inclination: 53.1 °
Period: 95.6 minutes
Semi major axis: 6925 km
RCS: Unknown
Launch date: May 4, 2021
Source: United States (US)
Launch site: AIR FORCE EASTERN TEST RANGE (AFETR)
Your satellite tracking list
BREEZE-M DEB (TANK)
Track 1 satellite(s)




NASA's NSSDC Master Catalog

Two Line Element Set (TLE):
1 48377U 21038AA  25185.84909830  .00000094  00000-0  25215-4 0  9997
2 48377  53.0571  24.7192 0001390  93.8274 266.2873 15.06386609229802
Source of the keplerian elements: AFSPC